E1570 Weather Reports


time (UTC)temp
C
wind
direction
speed
KPH
gust
KPH
rain 1hr
cm
rain 24hr
cm
rain mn
cm
humidity
%
barometer
mb
20260906110101 20 213 1.6 6.4 0.00 0.18 0.00 93 1014.6
20260906104556 20 155 1.6 4.8 0.00 0.18 0.00 93 1014.4
20260906103101 20 147 0.0 3.2 0.00 0.18 0.00 93 1014.3
20260906101602 20 148 1.6 6.4 0.00 0.18 0.00 93 1014.0
20260906100059 20 167 0.0 6.4 0.00 0.18 0.00 92 1014.1
20260906094557 20 170 3.2 6.4 0.00 0.18 0.00 93 1013.9
20260906093105 20 0 1.6 6.4 0.00 0.18 0.00 93 1013.6
20260906091601 20 136 1.6 3.2 0.00 0.18 0.00 93 1013.6
20260906084556 20 146 1.6 3.2 0.00 0.18 0.00 93 1013.6
20260906083102 20 126 0.0 1.6 0.00 0.18 0.00 93 1013.7
20260906081603 20 0 0.0 0.0 0.00 0.18 0.00 93 1013.7
20260906074600 20 79 0.0 3.2 0.00 0.18 0.00 93 1013.6
20260906073055 20 82 1.6 3.2 0.00 0.18 0.00 93 1013.5
20260906071601 20 143 0.0 1.6 0.00 0.18 0.00 93 1013.4
20260906064559 21 157 3.2 4.8 0.00 0.18 0.00 93 1013.7
20260906063056 21 139 0.0 1.6 0.00 0.18 0.00 93 1014.0
20260906061601 21 207 0.0 1.6 0.00 0.18 0.00 93 1014.1
20260906060116 20 0 0.0 1.6 0.00 0.18 0.00 93 1014.3
20260906054601 20 0 0.0 1.6 0.00 0.18 0.00 93 1014.3
20260906053055 20 0 0.0 1.6 0.00 0.18 0.00 93 1014.3
20260906051606 20 0 0.0 1.6 0.00 0.18 0.00 93 1014.0
20260906050059 20 0 0.0 1.6 0.00 0.18 0.00 93 1014.3
20260906044556 20 229 0.0 1.6 0.00 0.18 0.00 93 1014.1
20260906043106 20 231 1.6 3.2 0.00 0.18 0.00 93 1014.1
20260906041602 20 204 0.0 1.6 0.00 0.18 0.00 93 1014.0
20260906040103 21 0 0.0 1.6 0.00 0.18 0.00 93 1014.2
20260906034603 21 205 0.0 1.6 0.00 0.18 0.18 92 1014.6
20260906033104 21 183 0.0 3.2 0.00 0.18 0.18 93 1014.7
20260906031603 21 0 0.0 0.0 0.00 0.18 0.18 92 1014.8
20260906030101 21 0 0.0 0.0 0.00 0.18 0.18 92 1014.8
20260906024555 21 0 0.0 0.0 0.00 0.18 0.18 92 1014.6
20260906023108 21 0 0.0 0.0 0.00 0.18 0.18 91 1014.7
20260906021559 21 0 0.0 0.0 0.00 0.18 0.18 91 1014.7
20260906014604 21 0 0.0 0.0 0.00 0.18 0.18 89 1014.6
20260906013104 22 0 0.0 0.0 0.00 0.18 0.18 89 1014.3
20260906011607 22 0 0.0 0.0 0.00 0.18 0.18 88 1014.0
20260906004558 23 0 0.0 0.0 0.00 0.18 0.18 85 1013.6
20260906003101 23 0 0.0 0.0 0.00 0.18 0.18 83 1013.5
20260906001559 23 0 0.0 0.0 0.00 0.18 0.18 80 1013.6
20260906000057 24 0 0.0 0.0 0.00 0.18 0.18 78 1013.4
20260905234602 25 0 0.0 1.6 0.00 0.18 0.18 76 1013.3
20260905233117 26 0 0.0 1.6 0.00 0.18 0.18 73 1013.4
20260905231559 27 183 1.6 4.8 0.00 0.18 0.18 68 1013.4
20260905230104 27 0 1.6 6.4 0.00 0.18 0.18 66 1013.4
20260905224604 28 161 3.2 8.0 0.00 0.18 0.18 63 1013.4
20260905223101 29 143 4.8 14.5 0.00 0.18 0.18 59 1013.2
20260905221559 30 96 1.6 8.0 0.00 0.18 0.18 60 1013.1
20260905220106 31 98 1.6 3.2 0.00 0.18 0.18 55 1012.7
20260905214559 31 0 1.6 3.2 0.00 0.18 0.18 55 1012.5
20260905213103 31 127 1.6 8.0 0.00 0.18 0.18 55 1012.4
20260905211611 31 136 1.6 4.8 0.00 0.18 0.18 54 1012.3
20260905210112 30 115 3.2 9.7 0.00 0.18 0.18 60 1012.3
20260905204600 30 213 6.4 11.3 0.00 0.18 0.18 56 1012.3
20260905203058 30 195 6.4 14.5 0.00 0.18 0.18 56 1012.3
20260905201603 30 189 4.8 14.5 0.00 0.18 0.18 56 1012.3
20260905200104 30 123 3.2 9.7 0.00 0.18 0.18 59 1012.3
20260905194558 29 170 4.8 11.3 0.00 0.18 0.18 57 1012.5
20260905193104 29 205 4.8 14.5 0.00 0.18 0.18 58 1012.9
20260905191602 29 182 8.0 14.5 0.00 0.18 0.18 61 1012.9
20260905190108 29 212 3.2 9.7 0.00 0.18 0.18 63 1013.2
20260905184607 28 89 3.2 6.4 0.00 0.18 0.18 67 1013.5
20260905183119 28 155 1.6 6.4 0.00 0.18 0.18 68 1013.6
20260905181603 28 0 1.6 4.8 0.00 0.18 0.18 71 1014.0
20260905174555 27 187 1.6 8.0 0.00 0.18 0.18 75 1014.8
20260905173106 26 70 0.0 4.8 0.00 0.18 0.18 77 1015.1
20260905171602 25 165 0.0 3.2 0.00 0.18 0.18 80 1015.2
20260905164602 25 32 3.2 8.0 0.00 0.18 0.18 82 1015.2
20260905163108 24 110 1.6 12.9 0.00 0.18 0.18 82 1015.2
20260905161604 24 66 0.0 11.3 0.00 0.18 0.18 83 1014.9
20260905160101 24 15 3.2 6.4 0.00 0.18 0.18 82 1015.3
20260905154607 24 51 1.6 4.8 0.00 0.18 0.18 83 1015.9
20260905153106 24 84 0.0 1.6 0.00 0.18 0.18 84 1016.4
20260905151611 23 334 1.6 4.8 0.15 0.18 0.18 86 1016.7
20260905144603 21 344 1.6 4.8 0.18 0.18 0.18 92 1016.9
20260905143103 21 252 0.0 4.8 0.18 0.18 0.18 91 1016.6
20260905141619 21 240 1.6 9.7 0.03 0.03 0.03 87 1016.7
20260905140107 21 130 0.0 20.9 0.00 0.00 0.00 89 1016.6
20260905134554 21 162 8.0 17.7 0.00 0.00 0.00 91 1016.8
20260905133101 21 172 1.6 3.2 0.00 0.00 0.00 91 1015.6
20260905131615 21 0 0.0 1.6 0.00 0.00 0.00 91 1015.7
20260905130100 21 0 0.0 0.0 0.00 0.00 0.00 93 1015.6
20260905124602 20 0 0.0 4.8 0.00 0.00 0.00 93 1015.5
20260905123056 20 193 1.6 6.4 0.00 0.00 0.00 93 1015.6
20260905121603 20 187 3.2 4.8 0.00 0.00 0.00 93 1015.5
20260905120100 20 154 1.6 3.2 0.00 0.00 0.00 93 1015.4
20260905114557 20 0 0.0 1.6 0.00 0.00 0.00 93 1015.4
20260905113056 20 193 3.2 6.4 0.00 0.00 0.00 93 1015.3
20260905111600 20 178 1.6 4.8 0.00 0.00 0.00 93 1015.2